Weather reports worldwide

Advertisment
Poitiers, France (7335): temperature & dewpoint: 12.01.2020 12:00:00 - 18.01.2020 12:00:00 (CET)Poitiers, France (7335): temperature 5cm: 12.01.2020 12:00:00 - 18.01.2020 12:00:00 (CET)Poitiers, France (7335): temperature -20cm & temperature -100cm: 12.01.2020 12:00:00 - 18.01.2020 12:00:00 (CET)Poitiers, France (7335): wind speed & gusts: 12.01.2020 12:00:00 - 18.01.2020 12:00:00 (CET)Poitiers, France (7335): wind direction: 12.01.2020 12:00:00 - 18.01.2020 12:00:00 (CET)Poitiers, France (7335): reduced air pressure: 12.01.2020 12:00:00 - 18.01.2020 12:00:00 (CET)Poitiers, France (7335): visibility: 12.01.2020 12:00:00 - 18.01.2020 12:00:00 (CET)Poitiers, France (7335): sunshine duration: 12.01.2020 12:00:00 - 18.01.2020 12:00:00 (CET)Poitiers, France (7335): precipitation: 12.01.2020 12:00:00 - 18.01.2020 12:00:00 (CET)
Date & Time tt [°C] td [°C] tt 5cm [°C] tt -20cm [°C] tt -100cm [°C] ff [km/h] ff [kn] fx [km/h] fx [kn] dd ppp [hPa] vv [km] sd [min] rr [mm]
18.01.2020 12:00:00 7,0 5,0 7,8 7,9 10,1 7 4 19 10 ESE 1028,7 20 60 0,0
18.01.2020 11:00:00 4,3 3,7 2,6 7,9 10,1 11 6 16 9 S 1029,2 15 58 0,0
18.01.2020 10:00:00 2,4 2,4 -0,1 8,0 10,2 11 6 16 9 S 1029,5 18 57 0,0
18.01.2020 09:00:00 1,0 1,0 -0,5 8,1 10,1 9 5 13 7 SSE 1030,0 8 0 0,0
18.01.2020 08:00:00 1,1 1,0 -0,8 8,2 10,1 9 5 14 7 SSE 1029,9 9 0 0,0
18.01.2020 07:00:00 1,1 1,0 -1,3 8,2 10,1 9 5 13 7 S 1029,8 15 0 0,0
18.01.2020 06:00:00 1,6 1,5 -0,9 8,3 10,1 10 5 12 6 S 1029,9 19 0 0,0
18.01.2020 05:00:00 1,8 1,5 -0,3 8,4 10,1 8 4 13 7 S 1029,9 20 0 0,0
18.01.2020 04:00:00 1,4 1,1 -0,4 8,5 10,1 11 6 20 11 S 1029,9 20 0 0,0
18.01.2020 03:00:00 1,4 1,3 -0,6 8,5 10,1 18 10 21 11 SSW 1030,3 16 0 0,2
18.01.2020 02:00:00 1,7 1,6 -0,5 8,6 10,2 10 5 16 9 S 1030,4 35 0 0,0
18.01.2020 01:00:00 2,0 1,7 0,6 8,7 10,1 15 8 24 13 SSW 1030,0 38 0 0,0
18.01.2020 00:00:00 1,7 1,4 0,0 8,7 10,1 16 8 19 10 SSW 1030,2 36 0 0,0
17.01.2020 23:00:00 2,2 1,8 0,9 8,8 10,1 15 8 20 11 SW 1029,7 39 0 0,0
17.01.2020 22:00:00 3,3 2,7 1,8 8,8 10,2 18 10 22 12 SW 1029,5 48 0 0,0
17.01.2020 21:00:00 3,4 2,4 2,3 8,9 10,1 17 9 22 12 SW 1028,9 60 0 0,0
17.01.2020 20:00:00 4,8 2,3 3,3 8,9 10,1 16 9 28 15 WSW 1028,2 60 0 0,0
17.01.2020 19:00:00 5,8 3,0 3,8 8,9 10,1 11 6 28 15 W 1027,4 60 0 0,0
17.01.2020 18:00:00 7,3 3,3 6,0 8,9 10,1 16 9 29 16 W 1026,5 20 8 0,0
17.01.2020 17:00:00 8,6 4,2 7,8 8,8 10,1 15 8 28 15 W 1025,4 59 34 0,0
17.01.2020 16:00:00 7,5 5,1 6,0 8,8 10,2 8 5 66 35 WNW 1024,7 44 24 0,2
17.01.2020 15:00:00 10,4 6,3 10,2 8,7 10,1 17 9 31 17 W 1023,5 39 10 0,0
17.01.2020 14:00:00 11,2 7,7 10,6 8,7 10,1 18 10 31 17 WSW 1023,0 20 34 0,0
17.01.2020 13:00:00 9,6 7,2 9,5 8,7 10,2 19 11 34 18 WSW 1022,9 28 3 0,0
17.01.2020 12:00:00 9,1 7,2 9,4 8,7 10,1 16 9 34 18 WSW 1023,1 50 0 0,0
17.01.2020 11:00:00 8,7 7,6 7,9 8,7 10,2 20 11 28 15 SW 1022,5 45 0 0,0
17.01.2020 10:00:00 7,8 7,2 6,8 8,7 10,2 18 10 26 14 SSW 1021,3 51 0 0,0
17.01.2020 09:00:00 7,8 6,9 7,1 8,7 10,2 14 8 32 18 SW 1020,6 60 0 0,2
17.01.2020 08:00:00 7,9 7,3 7,3 8,7 10,2 20 11 42 23 SSW 1020,0 60 0 0,8
17.01.2020 07:00:00 9,0 8,4 8,2 8,7 10,2 24 13 33 18 SSW 1019,2 13 0 1,0
17.01.2020 06:00:00 8,8 8,2 8,3 8,6 10,2 23 12 35 19 S 1018,4 19 0 0,2
17.01.2020 05:00:00 8,7 8,2 8,2 8,6 10,2 21 11 41 22 SSW 1018,6 8 0 0,8
17.01.2020 04:00:00 8,7 7,9 8,1 8,6 10,2 18 10 34 18 SSW 1018,9 13 0 1,0
17.01.2020 03:00:00 9,6 7,0 8,3 8,6 10,2 24 13 48 26 S 1018,6 14 0 0,0
17.01.2020 02:00:00 10,5 6,3 9,8 8,6 10,2 31 17 54 29 S 1018,3 45 0 0,0
17.01.2020 01:00:00 10,8 6,0 10,2 8,6 10,1 26 14 48 26 S 1018,4 60 0 0,0
17.01.2020 00:00:00 11,2 6,1 10,4 8,6 10,1 34 18 51 28 S 1017,9 60 0 0,0
16.01.2020 23:00:00 11,3 6,6 10,3 8,6 10,2 30 16 50 27 S 1018,0 60 0 0,0
16.01.2020 22:00:00 11,5 6,8 9,9 8,6 10,2 29 16 46 25 S 1018,1 60 0 0,0
16.01.2020 21:00:00 11,1 6,6 9,9 8,5 10,2 27 15 41 22 S 1018,1 60 0 0,0
16.01.2020 20:00:00 11,5 6,6 10,1 8,5 10,2 20 11 33 18 S 1018,3 60 0 0,0
16.01.2020 19:00:00 12,1 6,6 10,6 8,5 10,2 22 12 32 18 S 1018,6 60 0 0,0
16.01.2020 18:00:00 13,0 6,6 11,1 8,4 10,2 18 10 40 22 S 1018,5 60 12 0,0
16.01.2020 17:00:00 14,4 6,5 14,2 8,3 10,2 22 12 38 20 S 1018,5 34 60 0,0
16.01.2020 16:00:00 15,3 6,8 17,1 8,2 10,2 22 12 40 21 S 1018,9 29 60 0,0
16.01.2020 15:00:00 15,7 6,9 17,5 8,1 10,2 25 13 40 22 S 1019,4 22 60 0,0
16.01.2020 14:00:00 15,0 6,3 17,5 8,1 10,2 25 14 41 22 S 1020,5 23 60 0,0
16.01.2020 13:00:00 13,8 6,6 15,7 8,0 10,2 25 14 40 21 S 1021,3 23 60 0,0
16.01.2020 12:00:00 12,2 6,7 12,6 8,1 10,2 21 12 35 19 SSE 1022,4 24 60 0,0
16.01.2020 11:00:00 10,3 6,8 8,6 8,1 10,2 21 11 35 19 SSE 1023,5 23 60 0,0
16.01.2020 10:00:00 7,6 6,2 4,9 8,1 10,2 18 10 31 17 SSE 1023,6 34 56 0,0
16.01.2020 09:00:00 5,5 5,4 3,9 8,2 10,2 14 8 21 12 SSE 1023,8 19 0 0,0
16.01.2020 08:00:00 5,2 5,2 2,7 8,2 10,2 12 7 20 11 SSE 1023,9 16 0 0,0
16.01.2020 07:00:00 5,1 5,1 2,1 8,3 10,2 10 5 16 9 SSE 1024,1 11 0 0,0
16.01.2020 06:00:00 5,0 5,0 2,0 8,4 10,2 9 5 12 6 SSE 1024,1 3,1 0 0,0
16.01.2020 05:00:00 5,6 5,6 2,3 8,4 10,2 8 5 12 7 SE 1024,4 1,0 0 0,0
16.01.2020 04:00:00 5,8 5,8 2,6 8,5 10,2 9 5 12 7 SSE 1024,6 4,7 0 0,0
16.01.2020 03:00:00 5,8 5,8 3,0 8,5 10,2 8 4 17 9 S 1024,7 4,8 0 0,0
16.01.2020 02:00:00 5,3 5,3 0,0 8,6 10,2 11 6 16 8 SSE 1024,5 0,3 0 0,2
16.01.2020 01:00:00 4,9 4,9 0,8 8,6 10,2 8 4 12 7 SSE 1025,2 0,2 0 0,0
16.01.2020 00:00:00 5,6 5,6 0,8 8,7 10,2 8 4 13 7 SSE 1025,2 0,4 0 0,0
15.01.2020 23:00:00 5,6 5,5 1,8 8,7 10,2 8 5 13 7 S 1024,9 0,6 0 0,0
15.01.2020 22:00:00 5,2 5,2 2,0 8,8 10,2 11 6 18 10 SSW 1024,5 0,8 0 0,0
15.01.2020 21:00:00 5,4 5,0 2,4 8,7 10,2 12 6 19 10 SW 1024,3 2,8 0 0,0
15.01.2020 20:00:00 7,0 6,7 4,1 8,7 10,2 15 8 24 13 SW 1023,5 16 0 0,0
15.01.2020 19:00:00 8,9 7,7 7,7 8,7 10,2 17 9 23 12 SW 1022,6 20 0 0,0
15.01.2020 18:00:00 10,4 8,3 9,5 8,6 10,2 18 10 29 16 SSW 1021,2 38 0 0,0
15.01.2020 17:00:00 11,7 8,0 11,4 8,6 10,2 21 11 43 23 SSW 1019,6 53 0 0,0
15.01.2020 16:00:00 12,1 7,6 11,9 8,5 10,2 29 16 45 25 SSW 1018,5 42 4 0,0
15.01.2020 15:00:00 12,3 7,4 11,8 8,5 10,2 31 17 56 30 SSW 1017,6 44 13 0,0
15.01.2020 14:00:00 12,3 6,3 12,3 8,5 10,2 37 20 63 34 SSW 1016,6 26 5 0,0
15.01.2020 13:00:00 12,3 5,9 12,8 8,4 10,2 39 21 67 36 SSW 1016,1 23 14 0,0
15.01.2020 12:00:00 12,2 5,8 12,1 8,4 10,2 37 20 59 32 S 1015,7 22 30 0,0
15.01.2020 11:00:00 12,0 5,4 11,5 8,4 10,2 34 18 57 31 S 1015,2 48 42 0,0
15.01.2020 10:00:00 10,6 5,4 8,5 8,4 10,2 34 18 54 29 S 1014,3 21 55 0,0
15.01.2020 09:00:00 9,1 4,9 7,6 8,4 10,2 28 15 45 24 S 1013,9 54 0 0,0
15.01.2020 08:00:00 8,4 5,0 7,3 8,5 10,2 24 13 38 21 S 1014,3 50 0 0,0
15.01.2020 07:00:00 8,5 5,1 7,5 8,5 10,3 24 13 45 24 S 1014,0 51 0 0,0
15.01.2020 06:00:00 8,7 5,4 7,8 8,5 10,2 26 14 43 23 S 1013,9 49 0 0,0
15.01.2020 05:00:00 8,5 5,6 7,3 8,5 10,2 27 15 45 25 S 1014,0 47 0 0,0
15.01.2020 04:00:00 8,5 5,8 7,3 8,5 10,2 29 16 46 25 S 1014,3 40 0 0,0
15.01.2020 03:00:00 8,4 5,9 7,3 8,6 10,2 26 14 48 26 S 1014,3 37 0 0,0
15.01.2020 02:00:00 8,5 5,6 7,6 8,5 10,2 29 15 49 26 S 1014,6 38 0 0,0
15.01.2020 01:00:00 8,9 5,5 7,8 8,6 10,2 32 18 51 27 S 1014,7 40 0 0,0
15.01.2020 00:00:00 9,2 5,4 8,1 8,6 10,2 30 16 52 28 S 1014,6 43 0 0,0
14.01.2020 23:00:00 9,8 5,4 8,8 8,6 10,2 29 16 52 28 S 1014,7 47 0 0,0
14.01.2020 22:00:00 10,4 5,0 9,2 8,6 10,3 29 15 41 22 S 1014,6 60 0 0,0
14.01.2020 21:00:00 10,7 5,0 9,3 8,5 10,3 18 10 26 14 S 1014,5 58 0 0,0
14.01.2020 20:00:00 10,3 5,3 9,2 8,5 10,2 13 7 29 15 S 1014,7 57 0 0,0
14.01.2020 19:00:00 10,2 5,4 9,4 8,4 10,2 19 11 34 19 S 1014,6 58 0 0,0
14.01.2020 18:00:00 10,1 5,9 9,2 8,4 10,2 17 9 40 22 S 1014,3 51 0 0,0
14.01.2020 17:00:00 10,0 6,0 8,8 8,4 10,2 26 14 46 25 S 1014,7 41 0 0,0
14.01.2020 16:00:00 10,7 5,4 10,0 8,3 10,2 29 15 50 27 S 1014,2 26 0 0,0
14.01.2020 15:00:00 11,0 4,4 11,1 8,3 10,2 26 14 47 25 S 1013,8 53 29 0,0
14.01.2020 14:00:00 11,0 4,9 11,5 8,2 10,2 31 17 49 26 S 1014,2 31 51 0,0
14.01.2020 13:00:00 9,9 4,3 11,5 8,2 10,3 31 17 48 26 S 1014,7 21 51 0,0
14.01.2020 12:00:00 9,4 4,2 7,6 8,2 10,2 32 18 53 29 S 1014,8 25 56 0,0
14.01.2020 11:00:00 7,1 4,4 5,6 8,2 10,2 32 17 48 26 S 1015,2 27 7 0,0
14.01.2020 10:00:00 6,1 4,7 5,3 8,3 10,2 29 15 49 27 S 1014,8 17 0 0,2
14.01.2020 09:00:00 6,1 3,8 5,3 8,3 10,2 30 16 46 25 S 1014,4 22 0 0,0
14.01.2020 08:00:00 6,5 2,4 5,6 8,3 10,3 33 18 50 27 S 1014,3 50 0 0,0
14.01.2020 07:00:00 6,3 2,0 5,7 8,3 10,2 29 16 48 26 S 1013,7 58 0 0,0
14.01.2020 06:00:00 6,5 2,0 5,7 8,4 10,2 29 16 44 24 S 1013,3 59 0 0,0
14.01.2020 05:00:00 6,7 1,8 6,3 8,4 10,2 26 14 44 24 S 1013,5 60 0 0,0
14.01.2020 04:00:00 7,0 1,9 6,6 8,4 10,3 24 13 41 22 S 1013,5 58 0 0,0
14.01.2020 03:00:00 7,1 2,0 6,6 8,5 10,2 26 14 45 24 SSW 1013,8 58 0 0,0
14.01.2020 02:00:00 7,2 2,1 5,9 8,5 10,3 26 14 40 22 S 1013,6 58 0 0,0
14.01.2020 01:00:00 7,0 2,5 6,1 8,5 10,2 23 12 36 19 S 1014,2 53 0 0,0
14.01.2020 00:00:00 6,9 3,1 6,6 8,5 10,3 21 11 35 19 S 1014,8 56 0 0,0
13.01.2020 23:00:00 6,8 3,6 6,2 8,5 10,2 23 13 38 21 S 1014,8 51 0 0,0
13.01.2020 22:00:00 6,7 3,5 6,1 8,5 10,3 28 15 41 22 S 1014,9 53 0 0,0
13.01.2020 21:00:00 7,1 3,7 6,4 8,5 10,3 26 14 41 22 S 1015,3 48 0 0,0
13.01.2020 20:00:00 7,5 4,8 6,4 8,5 10,3 24 13 35 19 S 1015,2 41 0 0,0
13.01.2020 19:00:00 7,8 5,6 6,7 8,5 10,3 17 9 29 15 S 1015,4 44 0 0,0
13.01.2020 18:00:00 8,1 5,9 6,9 8,5 10,3 18 10 30 16 S 1015,8 46 0 0,0
13.01.2020 17:00:00 8,7 6,8 8,3 8,4 10,3 18 10 30 16 S 1016,4 50 0 0,0
13.01.2020 16:00:00 8,8 7,1 8,9 8,4 10,3 21 12 35 19 SSE 1016,8 40 0 0,0
13.01.2020 15:00:00 8,9 7,0 9,4 8,3 10,3 18 10 34 19 S 1017,8 42 25 0,0
13.01.2020 14:00:00 8,5 7,0 9,3 8,3 10,3 24 13 34 18 S 1018,7 36 33 0,0
13.01.2020 13:00:00 7,8 6,9 7,9 8,2 10,3 20 11 34 19 S 1019,8 24 13 0,0
13.01.2020 12:00:00 6,7 6,1 7,0 8,3 10,3 20 11 41 22 S 1021,4 12 4 0,0
13.01.2020 11:00:00 6,7 6,0 6,4 8,2 10,3 24 13 37 20 S 1022,0 21 10 0,0
13.01.2020 10:00:00 6,3 6,0 6,2 8,3 10,3 20 11 31 17 S 1022,5 6 0 0,0
13.01.2020 09:00:00 6,4 6,3 6,3 8,2 10,3 22 12 36 19 S 1022,4 10 0 0,0
13.01.2020 08:00:00 6,6 6,6 6,6 8,2 10,3 19 10 31 17 S 1022,9 3,1 0 0,0
13.01.2020 07:00:00 6,6 6,6 6,4 8,2 10,3 18 10 30 16 S 1023,2 3,5 0 0,0
13.01.2020 06:00:00 6,5 6,4 6,4 8,2 10,3 17 9 29 16 S 1024,1 4,2 0 0,2
13.01.2020 05:00:00 6,6 6,5 6,6 8,2 10,3 21 11 31 17 S 1024,8 4,5 0 0,2
13.01.2020 04:00:00 6,7 6,6 6,6 8,2 10,3 19 10 30 16 S 1025,4 8 0 0,0
13.01.2020 03:00:00 6,9 6,6 6,8 8,2 10,3 18 10 26 14 S 1026,2 11 0 0,0
13.01.2020 02:00:00 6,9 6,8 6,9 8,2 10,3 16 8 28 15 SSW 1026,6 10 0 0,0
13.01.2020 01:00:00 7,0 6,9 6,9 8,2 10,3 14 8 24 13 S 1027,2 8 0 0,0
13.01.2020 00:00:00 7,0 6,9 6,9 8,2 10,3 19 10 29 16 S 1027,9 8 0 0,0
12.01.2020 23:00:00 7,0 6,9 6,8 8,2 10,3 16 9 26 14 S 1028,0 8 0 0,0
12.01.2020 22:00:00 6,9 6,8 6,5 8,1 10,4 18 10 27 15 SSW 1028,4 12 0 0,0
12.01.2020 21:00:00 6,8 6,7 6,7 8,1 10,4 19 11 27 14 SSW 1028,8 4,5 0 0,2
12.01.2020 20:00:00 6,9 6,6 6,8 8,1 10,4 19 11 35 19 SSW 1029,2 4,6 0 0,0
12.01.2020 19:00:00 7,2 6,5 6,8 8,1 10,4 24 13 36 19 S 1028,8 14 0 0,0
12.01.2020 18:00:00 7,6 6,5 7,3 8,0 10,4 24 13 35 19 SSW 1028,7 18 0 0,0
12.01.2020 17:00:00 7,8 6,6 7,8 7,9 10,4 23 13 34 19 S 1028,6 14 0 0,0
12.01.2020 16:00:00 8,0 6,1 8,8 7,9 10,3 25 14 40 22 SSW 1028,5 20 5 0,0
12.01.2020 15:00:00 8,4 5,9 9,5 7,8 10,3 28 15 40 22 SSW 1028,6 38 0 0,0
12.01.2020 14:00:00 8,4 5,3 9,1 7,8 10,4 22 12 36 20 SSW 1029,2 23 0 0,0
12.01.2020 13:00:00 8,0 4,9 8,4 7,8 10,4 17 9 32 17 S 1030,0 41 0 0,0
12.01.2020 12:00:00 7,5 4,3 8,5 7,8 10,4 16 9 29 16 SSW 1030,7 38 27 0,0

tt = temperature
td = dewpoint
tt 5cm = temperature 5cm
tt -20cm = temperature -20cm
tt -100cm = temperature -100cm
ff = wind speed
fx = gusts
dd = wind direction
ppp = reduced air pressure
vv = visibility
sd = sunshine duration
rr = precipitation

Next stations